Location: Ferchesar
(52.6477°N, 12.4298°E)
Time: 10:04:07
(UTC+01:00)

Tiros 1 despin weight - Pass Details

Date: 16 December 2021
Orbit: 592 x 641 km, 48.2° (Epoch: 19 January)

Event Time Altitude Azimuth Distance (km) Brightness Sun altitude
Rises 14:32:30 0° 273° (W) 2,842 ? 7.6°
Reaches altitude 10° 14:35:46 10° 248° (WSW) 1,929 ? 7.3°
Maximum altitude 14:38:01 14° 217° (SW) 1,684 ? 7.1°
Drops below altitude 10° 14:40:16 10° 187° (S) 1,917 ? 6.9°
Sets 14:43:31 0° 161° (SSE) 2,812 ? 6.6°
